User: anonymous   Login
Location: Gro�sch�nbrunn
(49.5760°N, 11.8868°E)
Time: 17:09:20
(UTC+00:00)
Language:

Cosmos 372 Rocket - Orbit

View from above orbital plane
View from above orbital plane
View from above satellite
View from above satellite

Ground track
Ground track

The orbit data is extracted from the following two-line orbital elements,

1 04589U 70086B   21332.36114274  .00000020  00000-0  14196-4 0  9993
2 04589  74.0590 191.9274 0020781 354.2963   5.7953 14.41670199680911
Epoch (UTC): 28 November 2021 08:40:02
Eccentricity: 0.0020781
inclination: 74.0590°
perigee height: 738 km
apogee height: 768 km
right ascension of ascending node: 191.9274°
argument of perigee: 354.2963°
revolutions per day: 14.41670199
mean anomaly at epoch: 5.7953°
orbit number at epoch: 68091

The dashed part of the orbit path shows where the satellite is in the earth's shadow,  

DLR